Skip Page Navigation
NASA JPL Caltech
NASA Logo - Jet Propulsion Laboratory + View the NASA Portal
+ Center for Near-Earth Object Studies
JPL Home Earth Solar System Stars & Galaxies Technology
JPL Solar System Dynamics
BODIES ORBITS EPHEMERIDES TOOLS PHYSICAL DATA DISCOVERY FAQ SITE MAP
JPL Small-Body Database Browser
Search: [ help ]  
243141 (2007 TG6)
Classification: Main-belt Asteroid          SPK-ID: 2243141
Ephemeris | Orbit Diagram | Orbital Elements | Mission Design | Physical Parameters | Discovery Circumstances ]

[ show orbit diagram ]
Orbital Elements at Epoch 2459000.5 (2020-May-31.0) TDB
Reference: JPL 19 (heliocentric ecliptic J2000)
 Element Value Uncertainty (1-sigma)   Units 
e .1065167936421541 6.3618e-08  
a 3.127604116860132 4.1276e-08 au
q 2.79446175455019 1.9803e-07 au
i 10.5549072144649 6.8192e-06 deg
node 331.343339973616 3.0358e-05 deg
peri 60.50288551491766 4.4081e-05 deg
M 89.29347034067446 2.9449e-05 deg
tp 2458499.389743029558
(2019-Jan-15.88974303)
0.00016572 TDB
period 2020.301056965242
5.53
3.9994e-05
1.095e-07
d
yr
n .1781912644943954 3.5275e-09 deg/d
Q 3.460746479170074 4.5672e-08 au
  Orbit Determination Parameters
   # obs. used (total)      320  
   data-arc span      6745 days (18.47 yr)  
   first obs. used      2001-08-16  
   last obs. used      2020-02-03  
   planetary ephem.      DE431  
   SB-pert. ephem.      SB431-N16  
   condition code      0  
   norm. resid. RMS      .6016  
   source      ORB  
   producer      Otto Matic  
   solution date      2020-Feb-25 09:17:37  

Additional Information
 Earth MOID = 1.81725 au 
 Jupiter MOID = 2.04302 au 
 T_jup = 3.179 
[ show covariance matrix ]

Ephemeris | Orbit Diagram | Orbital Elements | Mission Design | Physical Parameters | Discovery Circumstances ]

Physical Parameter Table
Parameter Symbol Value Units Sigma Reference Notes
absolute magnitude H 15.3   n/a MPO454783  
diameter diameter 5.555 km 0.678 urn:nasa:pds:neowise_diameters_albedos::2.0[mainbelt] (http://adsabs.harvard.edu/abs/2011ApJ...741...68M)  
geometric albedo albedo 0.057   0.020 urn:nasa:pds:neowise_diameters_albedos::2.0[mainbelt] (http://adsabs.harvard.edu/abs/2011ApJ...741...68M)  

243141 (2007 TG6)          Discovered 2007-Oct-06 by Chante-Perdrix at Chante-Perdrix
Reference: 20100626/Numbers.arcLast Updated: 2010-06-28
Ephemeris | Orbit Diagram | Orbital Elements | Mission Design | Physical Parameters | Discovery Circumstances ]
ABOUT SSD CREDITS/AWARDS PRIVACY/COPYRIGHT GLOSSARY LINKS
FirstGov 2020-Aug-15 20:57 UT
(server date/time)  
NASA Home Page
Site Manager:   Ryan S. Park
Webmaster  Alan B. Chamberlin